N604PS KIND-KCLT

Flight info

Callsign N604PS
Flight time 1h 9m
Altitude 41000
Route DAWNN1 IIU TAFTT PARQR4
Aircraft CL60/M-SBDE1E2E3FGHIJ1J4J5J7M3RWXYZ/LB1V1D1

Departure

Time 2026-05-07 01:59
Airport Indianapolis International Airport (KIND)

Arrival

Time 2026-05-07 03:08
Airport Charlotte Douglas International Airport (KCLT)
Time Latitude Longitude Altitude Speed Heading
2026-05-07 01:32 39.72598 -86.27173 790 ft 0 kts
2026-05-07 01:49 39.72590 -86.27187 790 ft 4 kts
2026-05-07 01:49 39.72567 -86.27221 790 ft 7 kts
2026-05-07 01:50 39.72513 -86.27229 789 ft 8 kts 170°
2026-05-07 01:50 39.72445 -86.27220 788 ft 9 kts
2026-05-07 01:50 39.72422 -86.27255 788 ft 8 kts
2026-05-07 01:50 39.72476 -86.27320 789 ft 12 kts
2026-05-07 01:51 39.72534 -86.27397 791 ft 11 kts
2026-05-07 01:51 39.72599 -86.27483 792 ft 14 kts
2026-05-07 01:51 39.72662 -86.27565 793 ft 9 kts
2026-05-07 01:51 39.72720 -86.27642 794 ft 14 kts
2026-05-07 01:52 39.72777 -86.27701 795 ft 9 kts
2026-05-07 01:52 39.72725 -86.27685 795 ft 10 kts 167°
2026-05-07 01:52 39.72685 -86.27712 795 ft 4 kts
2026-05-07 01:52 39.72682 -86.27715 795 ft 0 kts
2026-05-07 01:53 39.72680 -86.27718 795 ft 2 kts
2026-05-07 01:53 39.72651 -86.27755 795 ft 9 kts
2026-05-07 01:53 39.72599 -86.27821 794 ft 10 kts
2026-05-07 01:53 39.72543 -86.27893 794 ft 9 kts
2026-05-07 01:54 39.72510 -86.27960 794 ft 10 kts
2026-05-07 01:54 39.72549 -86.28039 795 ft 8 kts
2026-05-07 01:54 39.72606 -86.28113 795 ft 13 kts
2026-05-07 01:54 39.72658 -86.28197 796 ft 9 kts
2026-05-07 01:55 39.72614 -86.28289 795 ft 15 kts
2026-05-07 01:55 39.72548 -86.28373 795 ft 11 kts
2026-05-07 01:55 39.72483 -86.28456 794 ft 15 kts
2026-05-07 01:55 39.72430 -86.28524 793 ft 10 kts
2026-05-07 01:56 39.72441 -86.28602 793 ft 12 kts
2026-05-07 01:56 39.72483 -86.28690 792 ft 10 kts
2026-05-07 01:56 39.72529 -86.28786 791 ft 12 kts
2026-05-07 01:56 39.72574 -86.28880 790 ft 13 kts
2026-05-07 01:57 39.72617 -86.28971 789 ft 11 kts
2026-05-07 01:57 39.72660 -86.29059 787 ft 12 kts
2026-05-07 01:57 39.72712 -86.29162 786 ft 11 kts
2026-05-07 01:57 39.72758 -86.29223 785 ft 10 kts
2026-05-07 01:58 39.72790 -86.29272 784 ft 4 kts
2026-05-07 01:58 39.72789 -86.29335 783 ft 7 kts
2026-05-07 01:58 39.72751 -86.29391 782 ft 10 kts
2026-05-07 01:58 39.72539 -86.29662 777 ft 103 kts
2026-05-07 01:59 39.71756 -86.30652 1190 ft 190 kts
2026-05-07 01:59 39.70776 -86.31749 2518 ft 190 kts
2026-05-07 01:59 39.69743 -86.32765 3399 ft 191 kts
2026-05-07 01:59 39.68683 -86.33921 4027 ft 201 kts
2026-05-07 02:00 39.67449 -86.34919 4695 ft 213 kts
2026-05-07 02:00 39.66019 -86.35800 4957 ft 231 kts
2026-05-07 02:00 39.64371 -86.35872 4994 ft 240 kts 175°
2026-05-07 02:00 39.62619 -86.35581 4982 ft 248 kts 175°
2026-05-07 02:01 39.60881 -86.35280 4993 ft 243 kts 175°
2026-05-07 02:01 39.59180 -86.35040 5082 ft 234 kts 176°
2026-05-07 02:01 39.57600 -86.34829 5632 ft 203 kts 178°
2026-05-07 02:01 39.56209 -86.34645 6236 ft 192 kts 178°
2026-05-07 02:02 39.54839 -86.34472 6779 ft 195 kts 179°
2026-05-07 02:02 39.53401 -86.34285 7328 ft 206 kts 178°
2026-05-07 02:02 39.51865 -86.34083 7885 ft 218 kts 180°
2026-05-07 02:02 39.50262 -86.33877 8472 ft 227 kts 180°
2026-05-07 02:03 39.48601 -86.33666 9020 ft 237 kts
2026-05-07 02:03 39.46891 -86.33450 9570 ft 245 kts
2026-05-07 02:03 39.45105 -86.33225 10135 ft 251 kts
2026-05-07 02:03 39.43361 -86.33006 10688 ft 255 kts
2026-05-07 02:04 39.42456 -86.32892 10975 ft 257 kts
2026-05-07 02:04 39.40603 -86.32662 11544 ft 260 kts
2026-05-07 02:04 39.38703 -86.32423 12100 ft 272 kts
2026-05-07 02:04 39.36673 -86.32159 12669 ft 290 kts
2026-05-07 02:05 39.34566 -86.31887 13242 ft 305 kts
2026-05-07 02:05 39.32319 -86.31600 13811 ft 321 kts
2026-05-07 02:05 39.29975 -86.31301 14375 ft 331 kts
2026-05-07 02:05 39.27556 -86.30995 14964 ft 337 kts
2026-05-07 02:06 39.25109 -86.30686 15547 ft 342 kts
2026-05-07 02:06 39.22600 -86.30372 16160 ft 343 kts
2026-05-07 02:06 39.20165 -86.30074 16768 ft 333 kts
2026-05-07 02:06 39.17789 -86.29786 17364 ft 322 kts
2026-05-07 02:07 39.15496 -86.29510 17958 ft 312 kts
2026-05-07 02:07 39.10950 -86.28964 19151 ft 318 kts
2026-05-07 02:07 39.08587 -86.28682 19749 ft 325 kts
2026-05-07 02:08 39.06206 -86.28398 20345 ft 331 kts
2026-05-07 02:08 39.03812 -86.28112 20897 ft 336 kts
2026-05-07 02:08 39.01397 -86.27822 21456 ft 339 kts
2026-05-07 02:08 38.98985 -86.27485 22333 ft 337 kts
2026-05-07 02:09 38.96775 -86.26927 24034 ft 300 kts
2026-05-07 02:09 38.94670 -86.26665 24733 ft 293 kts
2026-05-07 02:09 38.92511 -86.26480 25276 ft 305 kts
2026-05-07 02:09 38.90316 -86.26281 25830 ft 316 kts
2026-05-07 02:10 38.88080 -86.26067 26364 ft 326 kts
2026-05-07 02:10 38.85803 -86.25839 26900 ft 329 kts
2026-05-07 02:10 38.83525 -86.25593 27484 ft 325 kts
2026-05-07 02:10 38.82922 -86.25527 27633 ft 323 kts
2026-05-07 02:11 38.81184 -86.25335 28045 ft 319 kts
2026-05-07 02:11 38.78977 -86.25093 28543 ft 319 kts
2026-05-07 02:11 38.76758 -86.24860 29075 ft 321 kts
2026-05-07 02:11 38.74515 -86.24625 29607 ft 325 kts
2026-05-07 02:12 38.72243 -86.24384 30131 ft 328 kts
2026-05-07 02:12 38.69970 -86.24137 30666 ft 329 kts
2026-05-07 02:12 38.67687 -86.23884 31199 ft 329 kts
2026-05-07 02:12 38.65399 -86.23629 31719 ft 330 kts
2026-05-07 02:13 38.63091 -86.23252 32231 ft 342 kts
2026-05-07 02:13 38.60714 -86.22520 32760 ft 358 kts
2026-05-07 02:13 38.58282 -86.21381 33291 ft 376 kts 178°
2026-05-07 02:13 38.55863 -86.19799 33851 ft 393 kts 170°
2026-05-07 02:14 38.53557 -86.17743 34380 ft 411 kts 161°
2026-05-07 02:14 38.51397 -86.15185 34903 ft 429 kts 152°
2026-05-07 02:14 38.49374 -86.12330 35422 ft 429 kts 151°
2026-05-07 02:14 38.48656 -86.11302 35613 ft 428 kts 151°
2026-05-07 02:15 38.47756 -86.10017 35848 ft 425 kts 151°
2026-05-07 02:15 38.45800 -86.07224 36374 ft 416 kts 152°
2026-05-07 02:15 38.43885 -86.04499 36903 ft 408 kts 152°
2026-05-07 02:15 38.41999 -86.01820 37431 ft 400 kts 153°
2026-05-07 02:16 38.40161 -85.99210 37954 ft 391 kts 154°
2026-05-07 02:16 38.38349 -85.96651 38432 ft 386 kts 154°
2026-05-07 02:16 38.36539 -85.94114 38781 ft 385 kts 154°
2026-05-07 02:16 38.34748 -85.91604 39120 ft 383 kts 154°
2026-05-07 02:17 38.32959 -85.89103 39369 ft 384 kts 154°
2026-05-07 02:17 38.31141 -85.86576 39484 ft 390 kts 153°
2026-05-07 02:17 38.27411 -85.81406 39557 ft 404 kts 153°
2026-05-07 02:18 38.23553 -85.76050 39614 ft 417 kts 152°
2026-05-07 02:18 38.19583 -85.70536 39689 ft 430 kts 151°
2026-05-07 02:19 38.15499 -85.64851 39760 ft 445 kts 148°
2026-05-07 02:19 38.13502 -85.61757 39782 ft 460 kts 143°
2026-05-07 02:19 38.11625 -85.58395 39804 ft 475 kts 138°
2026-05-07 02:20 38.09979 -85.54645 39858 ft 501 kts 124°
2026-05-07 02:20 38.08898 -85.50348 39854 ft 522 kts 112°
2026-05-07 02:20 38.07170 -85.41271 39887 ft 533 kts 111°
2026-05-07 02:21 38.05393 -85.32030 39926 ft 543 kts 112°
2026-05-07 02:21 38.03624 -85.22868 39975 ft 550 kts 111°
2026-05-07 02:22 38.01784 -85.13391 40020 ft 556 kts 112°
2026-05-07 02:22 37.99918 -85.03854 40076 ft 562 kts 110°
2026-05-07 02:23 37.98027 -84.94235 40125 ft 566 kts 112°
2026-05-07 02:23 37.96119 -84.84570 40503 ft 563 kts 111°
2026-05-07 02:24 37.95173 -84.79794 40789 ft 560 kts 111°
2026-05-07 02:24 37.94227 -84.75031 41018 ft 558 kts 110°
2026-05-07 02:24 37.92336 -84.65508 41149 ft 561 kts 111°
2026-05-07 02:25 37.91397 -84.60719 41333 ft 559 kts 109°
2026-05-07 02:25 37.90465 -84.55980 41325 ft 562 kts 111°
2026-05-07 02:25 37.89487 -84.51183 41100 ft 568 kts 111°
2026-05-07 02:25 37.88498 -84.46324 41039 ft 571 kts 111°
2026-05-07 02:26 37.86571 -84.36852 41024 ft 575 kts 110°
2026-05-07 02:26 37.84574 -84.27063 41007 ft 577 kts 112°
2026-05-07 02:27 37.82599 -84.17415 41010 ft 578 kts 111°
2026-05-07 02:27 37.80579 -84.07603 41002 ft 579 kts 110°
2026-05-07 02:28 37.78556 -83.97816 40993 ft 576 kts 111°
2026-05-07 02:28 37.76532 -83.88071 40991 ft 574 kts 112°
2026-05-07 02:29 37.74505 -83.78353 41009 ft 573 kts 112°
2026-05-07 02:29 37.72473 -83.68657 40986 ft 572 kts 112°
2026-05-07 02:30 37.70437 -83.58991 40987 ft 570 kts 111°
2026-05-07 02:30 37.68391 -83.49317 40632 ft 576 kts 110°
2026-05-07 02:31 37.67350 -83.44417 40252 ft 582 kts 111°
2026-05-07 02:31 37.66301 -83.39495 39865 ft 583 kts 111°
2026-05-07 02:31 37.65256 -83.34600 39491 ft 578 kts 112°
2026-05-07 02:31 37.64215 -83.29739 39113 ft 573 kts 112°
2026-05-07 02:32 37.63233 -83.25154 38774 ft 569 kts 112°
2026-05-07 02:32 37.62195 -83.20340 38407 ft 565 kts 112°
2026-05-07 02:32 37.61169 -83.15577 38014 ft 563 kts 112°
2026-05-07 02:32 37.60148 -83.10855 37648 ft 557 kts 113°
2026-05-07 02:33 37.59136 -83.06179 37285 ft 552 kts 112°
2026-05-07 02:33 37.58130 -83.01536 36905 ft 548 kts 112°
2026-05-07 02:33 37.57127 -82.96924 36526 ft 545 kts 113°
2026-05-07 02:33 37.55999 -82.92425 36162 ft 534 kts 120°
2026-05-07 02:34 37.54569 -82.88180 35802 ft 521 kts 126°
2026-05-07 02:34 37.52864 -82.84225 35425 ft 509 kts 134°
2026-05-07 02:34 37.50917 -82.80590 35073 ft 494 kts 140°
2026-05-07 02:34 37.48748 -82.77265 34686 ft 480 kts 147°
2026-05-07 02:35 37.46432 -82.74290 34319 ft 470 kts 151°
2026-05-07 02:35 37.44090 -82.71422 33950 ft 469 kts 150°
2026-05-07 02:35 37.41750 -82.68552 33570 ft 468 kts 150°
2026-05-07 02:35 37.39409 -82.65683 33187 ft 467 kts 150°
2026-05-07 02:36 37.37086 -82.62838 32812 ft 467 kts 150°
2026-05-07 02:36 37.34764 -82.59997 32386 ft 467 kts 150°
2026-05-07 02:36 37.32436 -82.57151 31949 ft 468 kts 149°
2026-05-07 02:36 37.30107 -82.54306 31522 ft 469 kts 150°
2026-05-07 02:37 37.27767 -82.51448 31101 ft 468 kts 149°
2026-05-07 02:37 37.25436 -82.48602 30685 ft 467 kts 149°
2026-05-07 02:37 37.23114 -82.45768 30256 ft 467 kts 149°
2026-05-07 02:37 37.20794 -82.42936 30005 ft 461 kts 149°
2026-05-07 02:38 37.16294 -82.37441 30007 ft 443 kts 150°
2026-05-07 02:38 37.11949 -82.32158 30010 ft 432 kts 151°
2026-05-07 02:39 37.07777 -82.27068 30002 ft 419 kts 150°
2026-05-07 02:39 37.03629 -82.22182 30030 ft 389 kts 161°
2026-05-07 02:40 37.01402 -82.20487 30003 ft 368 kts 168°
2026-05-07 02:40 36.99179 -82.18936 29989 ft 366 kts 168°
2026-05-07 02:40 36.94613 -82.15745 29995 ft 384 kts 168°
2026-05-07 02:41 36.89905 -82.12483 29994 ft 397 kts 167°
2026-05-07 02:41 36.84946 -82.09067 30000 ft 409 kts 167°
2026-05-07 02:42 36.79982 -82.05664 29802 ft 424 kts 166°
2026-05-07 02:42 36.77450 -82.03927 29324 ft 428 kts 166°
2026-05-07 02:42 36.75166 -82.02353 28895 ft 420 kts 165°
2026-05-07 02:43 36.72683 -82.00638 28368 ft 410 kts 165°
2026-05-07 02:43 36.70180 -81.98922 27813 ft 398 kts 166°
2026-05-07 02:43 36.67795 -81.97281 27319 ft 387 kts 166°
2026-05-07 02:43 36.65468 -81.95684 26826 ft 377 kts 166°
2026-05-07 02:44 36.63202 -81.94133 26329 ft 370 kts 166°
2026-05-07 02:44 36.60935 -81.92593 25821 ft 374 kts 166°
2026-05-07 02:44 36.58617 -81.91030 25299 ft 385 kts 165°
2026-05-07 02:44 36.56237 -81.89421 24790 ft 394 kts 164°
2026-05-07 02:45 36.53813 -81.87775 24297 ft 402 kts 163°
2026-05-07 02:45 36.51354 -81.86100 24080 ft 404 kts 163°
2026-05-07 02:45 36.48894 -81.84426 24027 ft 403 kts 163°
2026-05-07 02:45 36.46436 -81.82753 24014 ft 402 kts 163°
2026-05-07 02:46 36.43975 -81.81079 24008 ft 405 kts 163°
2026-05-07 02:46 36.41505 -81.79398 23701 ft 407 kts 163°
2026-05-07 02:46 36.39002 -81.77706 23209 ft 412 kts 162°
2026-05-07 02:46 36.36497 -81.76007 22702 ft 409 kts 162°
2026-05-07 02:47 36.34027 -81.74329 22218 ft 402 kts 162°
2026-05-07 02:47 36.31586 -81.72674 21717 ft 397 kts 162°
2026-05-07 02:47 36.29178 -81.71044 21219 ft 393 kts 162°
2026-05-07 02:47 36.26797 -81.69433 20718 ft 389 kts 162°
2026-05-07 02:48 36.24432 -81.67836 20230 ft 386 kts 162°
2026-05-07 02:48 36.22067 -81.66244 19740 ft 387 kts 162°
2026-05-07 02:48 36.19695 -81.64647 19223 ft 389 kts 162°
2026-05-07 02:48 36.17316 -81.63046 18721 ft 390 kts 162°
2026-05-07 02:49 36.14926 -81.61440 18215 ft 392 kts 161°
2026-05-07 02:49 36.12527 -81.59827 17709 ft 394 kts 161°
2026-05-07 02:49 36.10121 -81.58210 17239 ft 393 kts 161°
2026-05-07 02:49 36.07772 -81.56622 17036 ft 375 kts 161°
2026-05-07 02:50 36.05561 -81.55121 16984 ft 351 kts 161°
2026-05-07 02:50 36.03478 -81.53712 16988 ft 336 kts 163°
2026-05-07 02:50 36.01381 -81.52319 16983 ft 350 kts 162°
2026-05-07 02:50 35.99192 -81.50864 16947 ft 364 kts 162°
2026-05-07 02:51 35.96932 -81.49363 16949 ft 374 kts 161°
2026-05-07 02:51 35.94604 -81.47813 16948 ft 380 kts 160°
2026-05-07 02:51 35.92301 -81.46269 16970 ft 375 kts 161°
2026-05-07 02:51 35.90042 -81.44751 16976 ft 363 kts 161°
2026-05-07 02:52 35.87921 -81.43329 16951 ft 351 kts 161°
2026-05-07 02:52 35.85809 -81.41913 16966 ft 339 kts 162°
2026-05-07 02:52 35.83815 -81.40584 16955 ft 337 kts 161°
2026-05-07 02:52 35.81747 -81.39208 16952 ft 335 kts 161°
2026-05-07 02:53 35.79866 -81.37957 16954 ft 335 kts 161°
2026-05-07 02:53 35.77985 -81.36706 16946 ft 337 kts 161°
2026-05-07 02:53 35.75935 -81.35274 16940 ft 337 kts 160°
2026-05-07 02:53 35.73955 -81.33875 16947 ft 335 kts 160°
2026-05-07 02:54 35.72107 -81.32557 16867 ft 334 kts 160°
2026-05-07 02:54 35.70083 -81.31111 16457 ft 340 kts 160°
2026-05-07 02:54 35.68191 -81.29634 16031 ft 347 kts 150°
2026-05-07 02:54 35.66472 -81.27496 15559 ft 357 kts 133°
2026-05-07 02:55 35.65401 -81.25207 15167 ft 358 kts 116°
2026-05-07 02:55 35.64763 -81.22271 14724 ft 356 kts 99°
2026-05-07 02:55 35.64751 -81.19255 14252 ft 351 kts 85°
2026-05-07 02:55 35.64979 -81.16295 13796 ft 346 kts 85°
2026-05-07 02:56 35.65191 -81.13394 13357 ft 339 kts 85°
2026-05-07 02:56 35.65397 -81.10538 12909 ft 332 kts 85°
2026-05-07 02:56 35.65485 -81.07751 12479 ft 323 kts 99°
2026-05-07 02:56 35.64953 -81.05180 12009 ft 303 kts 111°
2026-05-07 02:57 35.64322 -81.02780 11573 ft 287 kts 112°
2026-05-07 02:57 35.63736 -81.00501 11160 ft 275 kts 111°
2026-05-07 02:57 35.63111 -80.98335 10671 ft 264 kts 120°
2026-05-07 02:57 35.62096 -80.96630 10089 ft 234 kts 147°
2026-05-07 02:58 35.60758 -80.95944 9558 ft 193 kts
2026-05-07 02:58 35.59526 -80.96238 9066 ft 175 kts
2026-05-07 02:58 35.58351 -80.96525 8534 ft 174 kts
2026-05-07 02:58 35.57138 -80.96605 7781 ft 182 kts
2026-05-07 02:59 35.55891 -80.96523 7288 ft 169 kts
2026-05-07 02:59 35.54787 -80.96387 6973 ft 159 kts
2026-05-07 02:59 35.53693 -80.96284 6690 ft 149 kts
2026-05-07 02:59 35.52675 -80.96193 6519 ft 154 kts
2026-05-07 03:00 35.51582 -80.96114 6291 ft 149 kts
2026-05-07 03:00 35.50553 -80.96019 6098 ft 156 kts
2026-05-07 03:00 35.49462 -80.95933 5893 ft 152 kts
2026-05-07 03:00 35.48415 -80.95836 5693 ft 153 kts
2026-05-07 03:01 35.47342 -80.95748 5494 ft 153 kts
2026-05-07 03:01 35.46275 -80.95655 5278 ft 152 kts
2026-05-07 03:01 35.45256 -80.95562 5116 ft 142 kts
2026-05-07 03:01 35.44280 -80.95468 4903 ft 138 kts
2026-05-07 03:02 35.43319 -80.95383 4723 ft 142 kts
2026-05-07 03:02 35.42307 -80.95313 4508 ft 146 kts
2026-05-07 03:02 35.41292 -80.95228 4343 ft 147 kts
2026-05-07 03:02 35.40260 -80.95139 4140 ft 149 kts
2026-05-07 03:03 35.39234 -80.95048 3950 ft 146 kts
2026-05-07 03:03 35.38244 -80.94958 3777 ft 138 kts
2026-05-07 03:03 35.37310 -80.94874 3597 ft 132 kts
2026-05-07 03:03 35.36410 -80.94798 3415 ft 127 kts
2026-05-07 03:04 35.35543 -80.94723 3247 ft 124 kts
2026-05-07 03:04 35.34658 -80.94654 3096 ft 130 kts
2026-05-07 03:04 35.33732 -80.94580 2916 ft 136 kts
2026-05-07 03:04 35.32778 -80.94497 2740 ft 138 kts
2026-05-07 03:05 35.31835 -80.94410 2576 ft 132 kts
2026-05-07 03:05 35.30930 -80.94329 2394 ft 130 kts
2026-05-07 03:05 35.30029 -80.94253 2217 ft 128 kts
2026-05-07 03:05 35.29118 -80.94178 2023 ft 134 kts
2026-05-07 03:06 35.28181 -80.94100 1859 ft 134 kts
2026-05-07 03:06 35.27278 -80.94018 1723 ft 125 kts
2026-05-07 03:06 35.26415 -80.93941 1535 ft 123 kts
2026-05-07 03:06 35.25575 -80.93869 1375 ft 117 kts
2026-05-07 03:07 35.24775 -80.93800 1231 ft 114 kts 180°
2026-05-07 03:07 35.23964 -80.93735 1038 ft 120 kts 179°
2026-05-07 03:07 35.23137 -80.93666 923 ft 115 kts 178°
2026-05-07 03:07 35.22339 -80.93604 760 ft 115 kts 180°
2026-05-07 03:08 35.21574 -80.93540 731 ft 104 kts 177°
2026-05-07 03:08 35.21035 -80.93494 721 ft 39 kts 176°
2026-05-07 03:08 35.20848 -80.93478 717 ft 15 kts 176°
2026-05-07 03:08 35.20785 -80.93457 716 ft 11 kts 101°
2026-05-07 03:09 35.20787 -80.93384 714 ft 8 kts 87°
2026-05-07 03:09 35.20789 -80.93304 713 ft 9 kts 83°
2026-05-07 03:09 35.20763 -80.93246 711 ft 3 kts 149°
2026-05-07 03:09 35.20722 -80.93249 711 ft 0 kts
2026-05-07 03:11 35.20721 -80.93250 711 ft 0 kts
2026-05-07 03:11 35.20722 -80.93250 711 ft 0 kts
2026-05-07 03:12 35.20721 -80.93250 711 ft 0 kts
2026-05-07 03:12 35.20724 -80.93246 711 ft 2 kts
2026-05-07 03:12 35.20732 -80.93230 711 ft 2 kts
2026-05-07 03:12 35.20738 -80.93214 707 ft 2 kts
2026-05-07 03:13 35.20742 -80.93196 706 ft 2 kts
2026-05-07 03:13 35.20744 -80.93182 706 ft 1 kts